User: anonymous   Login
Location: Theydon Bois
(51.6750°N, 0.1050°E)
Time: 20:18:11
(UTC+00:00)
Language:

CZ-2D R/B - Orbit

View from above orbital plane
View from above orbital plane
View from above satellite
View from above satellite

Ground track
Ground track

The orbit data is extracted from the following two-line orbital elements,

1 28738U 05024B   17352.13684042  .00000485  00000-0  32427-4 0  9994
2 28738  97.4763  25.2088 0013760  91.7368 268.5439 15.11390286683596
Epoch (UTC): 18 December 2017 03:17:03
Eccentricity: 0.0013760
inclination: 97.4763°
perigee height: 522 km
apogee height: 541 km
right ascension of ascending node: 25.2088°
argument of perigee: 91.7368°
revolutions per day: 15.11390286
mean anomaly at epoch: 268.5439°
orbit number at epoch: 68359

The dashed part of the orbit path shows where the satellite is in the earth's shadow,  

DLR